sat.trackr.live / text

‹ back to catalog

STARLINK-34639

NORAD 64767 · 2025-147N

PAYLOAD ACTIVE UNKNOWN

§ Identity

Operator
Country
US
Launch date
2025-07-08
Launch site
AFETR
Launch vehicle
Mass (kg)
RCS (m²)

Purposes: comms

External: N2YO · Heavens-Above · Gunter

§ Orbital elements

Epoch: 2026-05-24T23:58:25.824864Z

Period
93.85 min
Inclination
53.1592°
Eccentricity
0.0001058
Mean motion
15.34405684 rev/d
Perigee alt
462.0 km
Apogee alt
463.4 km
Semi-major
6,840.8 km
B*
6.9898e-4
RAAN
247.6896°
Arg perigee
87.2817°
Mean anomaly
272.8307°
Rev number
5,039

§ Raw data

STARLINK-346391 64767U 25147N   26144.99891001  .00023318  00000+0  69898-3 0  99922 64767  53.1592 247.6896 0001058  87.2817 272.8307 15.34405684 50392

JSON: /api/v1/satellites/64767 · /tle

For live sub-satellite position, see the globe view (requires WebGL).

§ Visibility from observer

Set your observer location to see the next 7 days of passes ≥ 10°. The values pass through the URL so the page stays shareable.

No JS? Fill the form by hand. The geolocation button needs JavaScript.